| time (UTC) | temp C | wind direction | speed KPH | gust KPH | rain 1hr cm | rain 24hr cm | rain mn cm | humidity % | barometer mb |
| 20260502163027 | 13 | 19 | 4.8 | 14.5 | 0.18 | 0.18 | 0.18 | 92 | 1013.4 |
| 20260502162023 | 13 | 19 | 4.8 | 14.5 | 0.18 | 0.18 | 0.18 | 91 | 1013.7 |
| 20260502161020 | 13 | 19 | 4.8 | 14.5 | 0.15 | 0.15 | 0.15 | 90 | 1014.0 |
| 20260502152020 | 15 | 19 | 4.8 | 14.5 | 0.00 | 0.00 | 0.00 | 75 | 1014.5 |
| 20260502151016 | 15 | 19 | 4.8 | 14.5 | 0.00 | 0.00 | 0.00 | 72 | 1014.6 |
| 20260502091034 | 18 | 19 | 4.8 | 14.5 | 0.00 | 0.00 | 0.00 | 52 | 1016.4 |
| 20260502071027 | 15 | 19 | 4.8 | 14.5 | 0.00 | 0.00 | 0.00 | 65 | 1016.8 |
| 20260502070024 | 15 | 19 | 4.8 | 14.5 | 0.00 | 0.00 | 0.00 | 67 | 1017.0 |
| 20260502065019 | 15 | 19 | 4.8 | 14.5 | 0.00 | 0.00 | 0.00 | 70 | 1017.1 |
| 20260502064016 | 14 | 19 | 4.8 | 14.5 | 0.00 | 0.00 | 0.00 | 72 | 1017.1 |
| 20260502063032 | 14 | 19 | 4.8 | 14.5 | 0.00 | 0.00 | 0.00 | 74 | 1017.0 |
| 20260502062028 | 13 | 19 | 4.8 | 14.5 | 0.00 | 0.00 | 0.00 | 76 | 1017.1 |
| 20260502061024 | 13 | 19 | 4.8 | 14.5 | 0.00 | 0.00 | 0.00 | 77 | 1017.2 |
| 20260502060020 | 13 | 19 | 4.8 | 14.5 | 0.00 | 0.00 | 0.00 | 79 | 1017.3 |
| 20260502055016 | 13 | 19 | 4.8 | 14.5 | 0.00 | 0.00 | 0.00 | 80 | 1017.1 |
| 20260502054032 | 13 | 19 | 4.8 | 14.5 | 0.00 | 0.00 | 0.00 | 80 | 1017.1 |
| 20260502053029 | 12 | 19 | 4.8 | 14.5 | 0.00 | 0.00 | 0.00 | 81 | 1017.1 |
| 20260502052024 | 12 | 19 | 4.8 | 14.5 | 0.00 | 0.00 | 0.00 | 81 | 1017.1 |
| 20260502051020 | 12 | 19 | 4.8 | 14.5 | 0.00 | 0.00 | 0.00 | 82 | 1017.3 |
| 20260502050016 | 12 | 19 | 4.8 | 14.5 | 0.00 | 0.00 | 0.00 | 82 | 1017.1 |
| 20260502045032 | 12 | 19 | 4.8 | 14.5 | 0.00 | 0.00 | 0.00 | 82 | 1017.2 |
| 20260502044029 | 12 | 19 | 4.8 | 14.5 | 0.00 | 0.00 | 0.00 | 82 | 1017.2 |
| 20260502043025 | 12 | 19 | 4.8 | 14.5 | 0.00 | 0.00 | 0.00 | 81 | 1017.2 |
| 20260502042021 | 12 | 19 | 4.8 | 14.5 | 0.00 | 0.00 | 0.00 | 81 | 1017.3 |
| 20260502041017 | 12 | 19 | 4.8 | 14.5 | 0.00 | 0.00 | 0.00 | 81 | 1017.3 |
| 20260502040033 | 12 | 19 | 4.8 | 14.5 | 0.00 | 0.00 | 0.00 | 81 | 1017.4 |
| 20260502035029 | 12 | 19 | 4.8 | 14.5 | 0.00 | 0.00 | 0.00 | 81 | 1017.6 |
| 20260502034025 | 12 | 19 | 4.8 | 14.5 | 0.00 | 0.00 | 0.00 | 81 | 1017.7 |
| 20260502033021 | 12 | 19 | 4.8 | 14.5 | 0.00 | 0.00 | 0.00 | 81 | 1017.9 |
| 20260502032017 | 12 | 19 | 4.8 | 14.5 | 0.00 | 0.00 | 0.00 | 80 | 1017.9 |
| 20260502031034 | 12 | 19 | 4.8 | 14.5 | 0.00 | 0.00 | 0.00 | 80 | 1018.1 |
| 20260502030030 | 12 | 19 | 4.8 | 14.5 | 0.00 | 0.00 | 0.00 | 80 | 1018.1 |
| 20260502025026 | 12 | 19 | 4.8 | 14.5 | 0.00 | 0.00 | 0.00 | 79 | 1018.3 |
| 20260502024022 | 12 | 19 | 4.8 | 14.5 | 0.00 | 0.00 | 0.00 | 79 | 1018.4 |
| 20260502023018 | 12 | 19 | 4.8 | 14.5 | 0.00 | 0.00 | 0.00 | 79 | 1018.4 |
| 20260502022034 | 12 | 19 | 4.8 | 14.5 | 0.00 | 0.00 | 0.00 | 78 | 1018.7 |
| 20260502021030 | 12 | 19 | 4.8 | 14.5 | 0.00 | 0.00 | 0.00 | 78 | 1018.8 |
| 20260502020026 | 12 | 19 | 4.8 | 14.5 | 0.00 | 0.00 | 0.00 | 77 | 1018.9 |
| 20260502015022 | 12 | 19 | 4.8 | 14.5 | 0.00 | 0.00 | 0.00 | 77 | 1019.1 |
| 20260502014018 | 12 | 19 | 4.8 | 14.5 | 0.00 | 0.00 | 0.00 | 77 | 1019.1 |
| 20260502013034 | 11 | 19 | 4.8 | 14.5 | 0.00 | 0.00 | 0.00 | 77 | 1019.4 |
| 20260502012031 | 11 | 19 | 4.8 | 14.5 | 0.00 | 0.00 | 0.00 | 79 | 1019.4 |
| 20260502011027 | 11 | 19 | 4.8 | 14.5 | 0.00 | 0.00 | 0.00 | 79 | 1019.6 |
| 20260502010023 | 10 | 19 | 4.8 | 14.5 | 0.00 | 0.00 | 0.00 | 79 | 1019.7 |
| 20260502005019 | 10 | 19 | 4.8 | 14.5 | 0.00 | 0.00 | 0.00 | 78 | 1019.8 |
| 20260502004035 | 10 | 19 | 4.8 | 14.5 | 0.00 | 0.00 | 0.00 | 77 | 1019.8 |
| 20260502003031 | 10 | 19 | 4.8 | 14.5 | 0.00 | 0.00 | 0.00 | 77 | 1020.0 |
| 20260502002027 | 10 | 19 | 4.8 | 14.5 | 0.00 | 0.00 | 0.00 | 76 | 1020.2 |
| 20260502001023 | 11 | 19 | 4.8 | 14.5 | 0.00 | 0.00 | 0.00 | 75 | 1020.1 |
| 20260502000019 | 11 | 19 | 4.8 | 14.5 | 0.00 | 0.00 | 0.00 | 74 | 1020.3 |
| 20260501235015 | 11 | 19 | 4.8 | 14.5 | 0.00 | 0.00 | 0.00 | 74 | 1020.2 |
| 20260501234032 | 11 | 19 | 4.8 | 14.5 | 0.00 | 0.00 | 0.00 | 73 | 1020.5 |
| 20260501233028 | 11 | 19 | 4.8 | 14.5 | 0.00 | 0.00 | 0.00 | 72 | 1020.6 |
| 20260501232024 | 11 | 19 | 4.8 | 14.5 | 0.00 | 0.00 | 0.00 | 71 | 1020.7 |
| 20260501231020 | 11 | 19 | 4.8 | 14.5 | 0.00 | 0.00 | 0.00 | 70 | 1020.8 |
| 20260501230016 | 11 | 19 | 4.8 | 14.5 | 0.00 | 0.00 | 0.00 | 70 | 1020.9 |
| 20260501225032 | 11 | 19 | 4.8 | 14.5 | 0.00 | 0.00 | 0.00 | 69 | 1021.0 |
| 20260501224028 | 12 | 19 | 4.8 | 14.5 | 0.00 | 0.00 | 0.00 | 69 | 1021.1 |
| 20260501223024 | 12 | 19 | 4.8 | 14.5 | 0.00 | 0.00 | 0.00 | 68 | 1021.2 |
| 20260501222020 | 12 | 19 | 4.8 | 14.5 | 0.00 | 0.00 | 0.00 | 68 | 1021.4 |
| 20260501221016 | 12 | 19 | 4.8 | 14.5 | 0.00 | 0.00 | 0.00 | 67 | 1021.5 |
| 20260501213020 | 13 | 19 | 4.8 | 14.5 | 0.00 | 0.00 | 0.00 | 65 | 1021.8 |
| 20260501212016 | 13 | 19 | 4.8 | 14.5 | 0.00 | 0.00 | 0.00 | 64 | 1021.8 |
| 20260501211032 | 13 | 19 | 4.8 | 14.5 | 0.00 | 0.00 | 0.00 | 63 | 1022.0 |
| 20260501210029 | 13 | 19 | 4.8 | 14.5 | 0.00 | 0.00 | 0.00 | 63 | 1022.1 |
| 20260501205024 | 13 | 19 | 4.8 | 14.5 | 0.00 | 0.00 | 0.00 | 62 | 1022.2 |
| 20260501204021 | 13 | 19 | 4.8 | 14.5 | 0.00 | 0.00 | 0.00 | 62 | 1022.2 |
| 20260501203017 | 13 | 19 | 4.8 | 14.5 | 0.00 | 0.00 | 0.00 | 60 | 1022.3 |
| 20260501202033 | 14 | 19 | 4.8 | 14.5 | 0.00 | 0.00 | 0.00 | 60 | 1022.3 |
| 20260501201029 | 14 | 19 | 4.8 | 14.5 | 0.00 | 0.00 | 0.00 | 59 | 1022.4 |
| 20260501200025 | 14 | 19 | 4.8 | 14.5 | 0.00 | 0.00 | 0.00 | 59 | 1022.4 |
| 20260501195021 | 15 | 19 | 4.8 | 14.5 | 0.00 | 0.00 | 0.00 | 58 | 1022.5 |
| 20260501194017 | 15 | 19 | 4.8 | 14.5 | 0.00 | 0.00 | 0.00 | 57 | 1022.6 |
| 20260501193033 | 16 | 19 | 4.8 | 14.5 | 0.00 | 0.00 | 0.00 | 55 | 1022.7 |
| 20260501192030 | 16 | 19 | 4.8 | 14.5 | 0.00 | 0.00 | 0.00 | 53 | 1022.6 |
| 20260501191026 | 17 | 19 | 4.8 | 14.5 | 0.00 | 0.00 | 0.00 | 50 | 1022.7 |
| 20260501190022 | 17 | 19 | 4.8 | 14.5 | 0.00 | 0.00 | 0.00 | 49 | 1022.7 |
| 20260501185018 | 18 | 19 | 4.8 | 14.5 | 0.00 | 0.00 | 0.00 | 47 | 1022.7 |
| 20260501184034 | 19 | 19 | 4.8 | 14.5 | 0.00 | 0.00 | 0.00 | 43 | 1022.8 |
| 20260501183030 | 20 | 19 | 4.8 | 14.5 | 0.00 | 0.00 | 0.00 | 41 | 1022.9 |
| 20260501182027 | 22 | 19 | 4.8 | 14.5 | 0.00 | 0.00 | 0.00 | 38 | 1023.0 |
| 20260501181022 | 22 | 19 | 4.8 | 14.5 | 0.00 | 0.00 | 0.00 | 36 | 1023.0 |
| 20260501180019 | 23 | 19 | 4.8 | 14.5 | 0.00 | 0.00 | 0.00 | 35 | 1023.0 |
| 20260501175035 | 23 | 19 | 4.8 | 14.5 | 0.00 | 0.00 | 0.00 | 34 | 1023.1 |
| 20260501174031 | 23 | 19 | 4.8 | 14.5 | 0.00 | 0.00 | 0.00 | 34 | 1023.1 |
| 20260501173027 | 23 | 19 | 4.8 | 14.5 | 0.00 | 0.00 | 0.00 | 34 | 1023.3 |
| 20260501172023 | 22 | 19 | 4.8 | 14.5 | 0.00 | 0.00 | 0.00 | 34 | 1023.5 |
| 20260501165032 | 23 | 19 | 4.8 | 14.5 | 0.00 | 0.00 | 0.00 | 33 | 1023.9 |
| 20260501164028 | 22 | 19 | 4.8 | 14.5 | 0.00 | 0.00 | 0.00 | 34 | 1023.9 |